| time (UTC) | temp C | wind direction | speed KPH | gust KPH | rain 1hr cm | rain 24hr cm | rain mn cm | humidity % | barometer mb |
| 20260507143424 | 25 | 34 | 6.4 | 14.5 | 0.00 | 0.00 | 0.00 | 20 | 1008.5 |
| 20260507142920 | 25 | 38 | 4.8 | 9.7 | 0.00 | 0.00 | 0.00 | 21 | 1008.6 |
| 20260507142416 | 25 | 354 | 9.7 | 12.9 | 0.00 | 0.00 | 0.00 | 21 | 1008.7 |
| 20260507141914 | 24 | 7 | 3.2 | 9.7 | 0.00 | 0.00 | 0.00 | 22 | 1008.8 |
| 20260507141410 | 24 | 36 | 4.8 | 8.0 | 0.00 | 0.00 | 0.00 | 23 | 1008.6 |
| 20260507140906 | 24 | 30 | 3.2 | 8.0 | 0.00 | 0.00 | 0.00 | 24 | 1008.5 |
| 20260507140403 | 23 | 45 | 4.8 | 9.7 | 0.00 | 0.00 | 0.00 | 24 | 1008.6 |
| 20260507135901 | 23 | 353 | 8.0 | 8.0 | 0.00 | 0.00 | 0.00 | 24 | 1008.7 |
| 20260507135357 | 23 | 356 | 6.4 | 14.5 | 0.00 | 0.00 | 0.00 | 25 | 1008.6 |
| 20260507134855 | 23 | 32 | 4.8 | 9.7 | 0.00 | 0.00 | 0.00 | 25 | 1008.7 |
| 20260507134351 | 23 | 347 | 4.8 | 12.9 | 0.00 | 0.00 | 0.00 | 26 | 1008.4 |
| 20260507133847 | 22 | 350 | 4.8 | 9.7 | 0.00 | 0.00 | 0.00 | 28 | 1008.2 |
| 20260507133342 | 22 | 356 | 4.8 | 8.0 | 0.00 | 0.00 | 0.00 | 27 | 1008.5 |
| 20260507132842 | 22 | 0 | 0.0 | 11.3 | 0.00 | 0.00 | 0.00 | 27 | 1008.3 |
| 20260507132337 | 22 | 20 | 4.8 | 12.9 | 0.00 | 0.00 | 0.00 | 28 | 1008.4 |
| 20260507131835 | 22 | 6 | 4.8 | 8.0 | 0.00 | 0.00 | 0.00 | 28 | 1008.4 |
| 20260507131331 | 22 | 12 | 6.4 | 11.3 | 0.00 | 0.00 | 0.00 | 28 | 1008.3 |
| 20260507130828 | 22 | 0 | 3.2 | 12.9 | 0.00 | 0.00 | 0.00 | 28 | 1008.2 |
| 20260507130325 | 22 | 0 | 6.4 | 14.5 | 0.00 | 0.00 | 0.00 | 28 | 1008.1 |
| 20260507125824 | 22 | 4 | 8.0 | 16.1 | 0.00 | 0.00 | 0.00 | 28 | 1008.1 |
| 20260507125321 | 21 | 16 | 6.4 | 11.3 | 0.00 | 0.00 | 0.00 | 29 | 1008.0 |
| 20260507124819 | 22 | 4 | 6.4 | 19.3 | 0.00 | 0.00 | 0.00 | 29 | 1007.9 |
| 20260507124315 | 22 | 12 | 11.3 | 17.7 | 0.00 | 0.00 | 0.00 | 28 | 1008.1 |
| 20260507123813 | 22 | 8 | 6.4 | 19.3 | 0.00 | 0.00 | 0.00 | 29 | 1008.0 |
| 20260507123310 | 21 | 39 | 4.8 | 16.1 | 0.00 | 0.00 | 0.00 | 28 | 1008.0 |
| 20260507122806 | 21 | 341 | 9.7 | 11.3 | 0.00 | 0.00 | 0.00 | 29 | 1007.9 |
| 20260507122306 | 21 | 49 | 8.0 | 19.3 | 0.00 | 0.00 | 0.00 | 28 | 1007.7 |
| 20260507121758 | 21 | 4 | 9.7 | 16.1 | 0.00 | 0.00 | 0.00 | 28 | 1007.8 |
| 20260507121254 | 22 | 346 | 6.4 | 17.7 | 0.00 | 0.00 | 0.00 | 28 | 1008.0 |
| 20260507120750 | 21 | 12 | 8.0 | 17.7 | 0.00 | 0.00 | 0.00 | 28 | 1008.0 |
| 20260507120247 | 21 | 16 | 3.2 | 14.5 | 0.00 | 0.00 | 0.00 | 29 | 1008.1 |
| 20260507115743 | 21 | 26 | 3.2 | 19.3 | 0.00 | 0.00 | 0.00 | 29 | 1008.0 |
| 20260507115239 | 21 | 19 | 8.0 | 19.3 | 0.00 | 0.00 | 0.00 | 28 | 1008.0 |
| 20260507114735 | 21 | 20 | 6.4 | 17.7 | 0.00 | 0.00 | 0.00 | 29 | 1008.3 |
| 20260507114232 | 20 | 21 | 6.4 | 11.3 | 0.00 | 0.00 | 0.00 | 29 | 1008.1 |
| 20260507113730 | 20 | 353 | 4.8 | 11.3 | 0.00 | 0.00 | 0.00 | 31 | 1008.2 |
| 20260507113227 | 20 | 19 | 3.2 | 8.0 | 0.00 | 0.00 | 0.00 | 31 | 1008.2 |
| 20260507112724 | 19 | 344 | 3.2 | 4.8 | 0.00 | 0.00 | 0.00 | 32 | 1008.3 |
| 20260507112221 | 20 | 29 | 4.8 | 6.4 | 0.00 | 0.00 | 0.00 | 31 | 1008.4 |
| 20260507111718 | 20 | 0 | 4.8 | 4.8 | 0.00 | 0.00 | 0.00 | 31 | 1008.2 |
| 20260507111215 | 20 | 12 | 4.8 | 8.0 | 0.00 | 0.00 | 0.00 | 31 | 1008.6 |
| 20260507110711 | 20 | 19 | 3.2 | 4.8 | 0.00 | 0.00 | 0.00 | 31 | 1008.3 |
| 20260507110208 | 20 | 0 | 3.2 | 8.0 | 0.00 | 0.00 | 0.00 | 32 | 1008.5 |
| 20260507105705 | 18 | 357 | 3.2 | 4.8 | 0.00 | 0.00 | 0.00 | 33 | 1008.6 |
| 20260507105200 | 19 | 6 | 1.6 | 3.2 | 0.00 | 0.00 | 0.00 | 32 | 1008.5 |
| 20260507104658 | 19 | 352 | 3.2 | 4.8 | 0.00 | 0.00 | 0.00 | 31 | 1008.7 |
| 20260507104154 | 20 | 15 | 3.2 | 4.8 | 0.00 | 0.00 | 0.00 | 31 | 1008.6 |
| 20260507103650 | 20 | 0 | 1.6 | 6.4 | 0.00 | 0.00 | 0.00 | 31 | 1008.8 |
| 20260507103147 | 20 | 24 | 3.2 | 4.8 | 0.00 | 0.00 | 0.00 | 31 | 1008.6 |
| 20260507102644 | 20 | 24 | 6.4 | 6.4 | 0.00 | 0.00 | 0.00 | 32 | 1008.7 |
| 20260507102140 | 19 | 353 | 4.8 | 4.8 | 0.00 | 0.00 | 0.00 | 33 | 1008.8 |
| 20260507101636 | 19 | 10 | 3.2 | 4.8 | 0.00 | 0.00 | 0.00 | 33 | 1008.9 |
| 20260507101132 | 19 | 28 | 3.2 | 4.8 | 0.00 | 0.00 | 0.00 | 32 | 1008.7 |
| 20260507100630 | 18 | 356 | 3.2 | 4.8 | 0.00 | 0.00 | 0.00 | 33 | 1008.8 |
| 20260507100128 | 18 | 23 | 3.2 | 4.8 | 0.00 | 0.00 | 0.00 | 33 | 1008.6 |
| 20260507095626 | 18 | 6 | 4.8 | 6.4 | 0.00 | 0.00 | 0.00 | 34 | 1008.8 |
| 20260507095122 | 18 | 350 | 4.8 | 6.4 | 0.00 | 0.00 | 0.00 | 34 | 1008.9 |
| 20260507094618 | 18 | 0 | 3.2 | 4.8 | 0.00 | 0.00 | 0.00 | 34 | 1008.8 |
| 20260507094115 | 18 | 8 | 3.2 | 4.8 | 0.00 | 0.00 | 0.00 | 34 | 1008.8 |
| 20260507093612 | 18 | 0 | 3.2 | 8.0 | 0.00 | 0.00 | 0.00 | 35 | 1008.8 |
| 20260507093111 | 18 | 10 | 4.8 | 4.8 | 0.00 | 0.00 | 0.00 | 35 | 1009.0 |
| 20260507092607 | 18 | 355 | 1.6 | 4.8 | 0.00 | 0.00 | 0.00 | 34 | 1008.8 |
| 20260507092103 | 18 | 0 | 1.6 | 4.8 | 0.00 | 0.00 | 0.00 | 34 | 1008.8 |
| 20260507091600 | 18 | 12 | 3.2 | 3.2 | 0.00 | 0.00 | 0.00 | 34 | 1008.8 |
| 20260507091056 | 18 | 8 | 3.2 | 4.8 | 0.00 | 0.00 | 0.00 | 33 | 1008.8 |
| 20260507090552 | 18 | 10 | 3.2 | 4.8 | 0.00 | 0.00 | 0.00 | 33 | 1008.7 |
| 20260507090049 | 18 | 0 | 3.2 | 3.2 | 0.00 | 0.00 | 0.00 | 33 | 1009.0 |
| 20260507085546 | 18 | 6 | 4.8 | 6.4 | 0.00 | 0.00 | 0.00 | 34 | 1008.8 |
| 20260507085043 | 18 | 3 | 3.2 | 4.8 | 0.00 | 0.00 | 0.00 | 34 | 1008.8 |
| 20260507084540 | 18 | 355 | 1.6 | 3.2 | 0.00 | 0.00 | 0.00 | 35 | 1008.9 |
| 20260507084037 | 18 | 5 | 1.6 | 3.2 | 0.00 | 0.00 | 0.00 | 34 | 1009.1 |
| 20260507083533 | 18 | 16 | 3.2 | 3.2 | 0.00 | 0.00 | 0.00 | 35 | 1009.1 |
| 20260507083030 | 18 | 0 | 1.6 | 3.2 | 0.00 | 0.00 | 0.00 | 35 | 1008.9 |
| 20260507082526 | 18 | 36 | 0.0 | 3.2 | 0.00 | 0.00 | 0.00 | 35 | 1009.0 |
| 20260507082023 | 18 | 11 | 3.2 | 3.2 | 0.00 | 0.00 | 0.00 | 36 | 1008.9 |
| 20260507081519 | 18 | 20 | 1.6 | 3.2 | 0.00 | 0.00 | 0.00 | 36 | 1009.0 |
| 20260507081016 | 19 | 26 | 3.2 | 4.8 | 0.00 | 0.00 | 0.00 | 35 | 1009.0 |
| 20260507080512 | 19 | 12 | 3.2 | 4.8 | 0.00 | 0.00 | 0.00 | 34 | 1009.0 |
| 20260507080008 | 18 | 21 | 4.8 | 4.8 | 0.00 | 0.00 | 0.00 | 36 | 1009.1 |
| 20260507075504 | 18 | 11 | 3.2 | 3.2 | 0.00 | 0.00 | 0.00 | 38 | 1009.0 |
| 20260507075001 | 18 | 6 | 1.6 | 3.2 | 0.00 | 0.00 | 0.00 | 38 | 1009.1 |
| 20260507074457 | 18 | 16 | 3.2 | 3.2 | 0.00 | 0.00 | 0.00 | 37 | 1009.2 |
| 20260507073955 | 18 | 20 | 0.0 | 3.2 | 0.00 | 0.00 | 0.00 | 36 | 1009.1 |
| 20260507073451 | 18 | 16 | 3.2 | 3.2 | 0.00 | 0.00 | 0.00 | 36 | 1009.1 |
| 20260507072948 | 18 | 18 | 1.6 | 3.2 | 0.00 | 0.00 | 0.00 | 36 | 1009.0 |
| 20260507072446 | 18 | 20 | 1.6 | 3.2 | 0.00 | 0.00 | 0.00 | 36 | 1009.3 |
| 20260507071943 | 19 | 19 | 3.2 | 3.2 | 0.00 | 0.00 | 0.00 | 36 | 1009.0 |
| 20260507071440 | 18 | 29 | 3.2 | 3.2 | 0.00 | 0.00 | 0.00 | 36 | 1009.1 |
| 20260507070936 | 18 | 29 | 1.6 | 3.2 | 0.00 | 0.00 | 0.00 | 36 | 1009.0 |
| 20260507070434 | 18 | 20 | 0.0 | 1.6 | 0.00 | 0.00 | 0.00 | 35 | 1009.1 |
| 20260507065930 | 18 | 29 | 1.6 | 3.2 | 0.00 | 0.00 | 0.00 | 36 | 1009.1 |
| 20260507065427 | 19 | 29 | 0.0 | 1.6 | 0.00 | 0.00 | 0.00 | 35 | 1009.1 |
| 20260507064925 | 19 | 23 | 3.2 | 3.2 | 0.00 | 0.00 | 0.00 | 35 | 1009.1 |
| 20260507064423 | 19 | 23 | 0.0 | 3.2 | 0.00 | 0.00 | 0.00 | 35 | 1009.2 |
| 20260507063920 | 19 | 7 | 1.6 | 1.6 | 0.00 | 0.00 | 0.00 | 35 | 1008.8 |
| 20260507063417 | 20 | 14 | 1.6 | 3.2 | 0.00 | 0.00 | 0.00 | 34 | 1009.1 |
| 20260507062914 | 20 | 14 | 3.2 | 3.2 | 0.00 | 0.00 | 0.00 | 37 | 1009.0 |
| 20260507062411 | 20 | 10 | 3.2 | 3.2 | 0.00 | 0.00 | 0.00 | 34 | 1009.0 |
| 20260507061908 | 20 | 16 | 3.2 | 3.2 | 0.00 | 0.00 | 0.00 | 34 | 1009.1 |
| 20260507061406 | 20 | 16 | 3.2 | 3.2 | 0.00 | 0.00 | 0.00 | 33 | 1009.0 |
| 20260507060905 | 20 | 23 | 1.6 | 3.2 | 0.00 | 0.00 | 0.00 | 33 | 1009.0 |
| 20260507060401 | 20 | 24 | 3.2 | 3.2 | 0.00 | 0.00 | 0.00 | 33 | 1008.7 |
| 20260507055858 | 20 | 11 | 3.2 | 3.2 | 0.00 | 0.00 | 0.00 | 34 | 1008.9 |
| 20260507055353 | 20 | 6 | 1.6 | 3.2 | 0.00 | 0.00 | 0.00 | 34 | 1008.9 |
| 20260507054850 | 20 | 23 | 0.0 | 1.6 | 0.00 | 0.00 | 0.00 | 32 | 1009.2 |
| 20260507054346 | 20 | 8 | 0.0 | 3.2 | 0.00 | 0.00 | 0.00 | 34 | 1009.1 |
| 20260507053843 | 20 | 12 | 1.6 | 3.2 | 0.00 | 0.00 | 0.00 | 33 | 1008.9 |
| 20260507053341 | 20 | 20 | 1.6 | 3.2 | 0.00 | 0.00 | 0.00 | 34 | 1008.9 |
| 20260507052840 | 21 | 8 | 0.0 | 3.2 | 0.00 | 0.00 | 0.00 | 32 | 1008.9 |
| 20260507052336 | 21 | 23 | 3.2 | 3.2 | 0.00 | 0.00 | 0.00 | 31 | 1009.0 |
| 20260507051834 | 21 | 29 | 0.0 | 1.6 | 0.00 | 0.00 | 0.00 | 30 | 1009.2 |
| 20260507051331 | 22 | 15 | 1.6 | 1.6 | 0.00 | 0.00 | 0.00 | 32 | 1009.2 |
| 20260507050828 | 22 | 23 | 0.0 | 1.6 | 0.00 | 0.00 | 0.00 | 31 | 1009.0 |
| 20260507050324 | 21 | 35 | 0.0 | 3.2 | 0.00 | 0.00 | 0.00 | 31 | 1009.0 |
| 20260507045821 | 21 | 23 | 0.0 | 3.2 | 0.00 | 0.00 | 0.00 | 33 | 1008.8 |
| 20260507045318 | 21 | 26 | 1.6 | 3.2 | 0.00 | 0.00 | 0.00 | 32 | 1008.7 |
| 20260507044815 | 21 | 26 | 1.6 | 3.2 | 0.00 | 0.00 | 0.00 | 33 | 1008.8 |
| 20260507044311 | 21 | 20 | 1.6 | 3.2 | 0.00 | 0.00 | 0.00 | 33 | 1008.8 |
| 20260507043807 | 21 | 14 | 1.6 | 3.2 | 0.00 | 0.00 | 0.00 | 31 | 1008.6 |
| 20260507043304 | 22 | 11 | 3.2 | 3.2 | 0.00 | 0.00 | 0.00 | 31 | 1008.9 |
| 20260507042801 | 22 | 6 | 1.6 | 3.2 | 0.00 | 0.00 | 0.00 | 31 | 1008.6 |
| 20260507042256 | 22 | 6 | 1.6 | 3.2 | 0.00 | 0.00 | 0.00 | 30 | 1008.7 |
| 20260507041754 | 23 | 14 | 1.6 | 1.6 | 0.00 | 0.00 | 0.00 | 29 | 1008.6 |
| 20260507041250 | 23 | 23 | 1.6 | 1.6 | 0.00 | 0.00 | 0.00 | 29 | 1008.4 |
| 20260507040747 | 23 | 15 | 1.6 | 1.6 | 0.00 | 0.00 | 0.00 | 28 | 1008.4 |
| 20260507040243 | 23 | 14 | 1.6 | 3.2 | 0.00 | 0.00 | 0.00 | 28 | 1008.1 |
| 20260507035739 | 23 | 14 | 1.6 | 1.6 | 0.00 | 0.00 | 0.00 | 28 | 1008.3 |
| 20260507035234 | 23 | 18 | 1.6 | 3.2 | 0.00 | 0.00 | 0.00 | 29 | 1008.2 |
| 20260507034732 | 23 | 7 | 1.6 | 1.6 | 0.00 | 0.00 | 0.00 | 27 | 1008.2 |
| 20260507034229 | 24 | 26 | 1.6 | 3.2 | 0.00 | 0.00 | 0.00 | 27 | 1008.2 |
| 20260507033728 | 25 | 29 | 1.6 | 3.2 | 0.00 | 0.00 | 0.00 | 26 | 1008.1 |
| 20260507033225 | 25 | 26 | 3.2 | 3.2 | 0.00 | 0.00 | 0.00 | 25 | 1007.8 |
| 20260507032722 | 25 | 19 | 3.2 | 3.2 | 0.00 | 0.00 | 0.00 | 25 | 1008.0 |
| 20260507032218 | 25 | 19 | 3.2 | 3.2 | 0.00 | 0.00 | 0.00 | 25 | 1008.0 |
| 20260507031715 | 25 | 14 | 1.6 | 3.2 | 0.00 | 0.00 | 0.00 | 25 | 1007.7 |
| 20260507031211 | 25 | 20 | 1.6 | 3.2 | 0.00 | 0.00 | 0.00 | 24 | 1007.8 |
| 20260507030708 | 25 | 19 | 3.2 | 3.2 | 0.00 | 0.00 | 0.00 | 25 | 1007.8 |
| 20260507030206 | 25 | 96 | 0.0 | 4.8 | 0.00 | 0.00 | 0.00 | 24 | 1007.6 |
| 20260507025703 | 25 | 90 | 0.0 | 3.2 | 0.00 | 0.00 | 0.00 | 24 | 1007.3 |
| 20260507025159 | 25 | 74 | 1.6 | 1.6 | 0.00 | 0.00 | 0.00 | 24 | 1007.2 |
| 20260507024658 | 26 | 66 | 0.0 | 3.2 | 0.00 | 0.00 | 0.00 | 24 | 1007.2 |
| 20260507024155 | 26 | 81 | 1.6 | 1.6 | 0.00 | 0.00 | 0.00 | 24 | 1007.3 |
| 20260507023650 | 26 | 90 | 1.6 | 3.2 | 0.00 | 0.00 | 0.00 | 24 | 1007.2 |
| 20260507023148 | 26 | 90 | 0.0 | 0.0 | 0.00 | 0.00 | 0.00 | 24 | 1007.0 |
| 20260507022644 | 26 | 66 | 1.6 | 1.6 | 0.00 | 0.00 | 0.00 | 24 | 1007.0 |
| 20260507022140 | 26 | 98 | 0.0 | 3.2 | 0.00 | 0.00 | 0.00 | 24 | 1007.1 |
| 20260507021637 | 26 | 60 | 0.0 | 3.2 | 0.00 | 0.00 | 0.00 | 24 | 1007.1 |
| 20260507021132 | 26 | 35 | 1.6 | 3.2 | 0.00 | 0.00 | 0.00 | 24 | 1006.9 |
| 20260507020631 | 26 | 32 | 3.2 | 4.8 | 0.00 | 0.00 | 0.00 | 24 | 1006.9 |
| 20260507020126 | 26 | 81 | 0.0 | 3.2 | 0.00 | 0.00 | 0.00 | 24 | 1006.7 |
| 20260507015625 | 26 | 90 | 0.0 | 3.2 | 0.00 | 0.00 | 0.00 | 24 | 1006.9 |
| 20260507015122 | 26 | 53 | 3.2 | 3.2 | 0.00 | 0.00 | 0.00 | 24 | 1006.8 |
| 20260507014619 | 26 | 105 | 1.6 | 3.2 | 0.00 | 0.00 | 0.00 | 24 | 1006.9 |
| 20260507014115 | 27 | 348 | 0.0 | 4.8 | 0.00 | 0.00 | 0.00 | 23 | 1006.9 |
| 20260507013612 | 27 | 23 | 0.0 | 3.2 | 0.00 | 0.00 | 0.00 | 23 | 1007.0 |
| 20260507013108 | 27 | 69 | 0.0 | 3.2 | 0.00 | 0.00 | 0.00 | 23 | 1006.9 |
| 20260507012606 | 27 | 33 | 3.2 | 4.8 | 0.00 | 0.00 | 0.00 | 23 | 1006.6 |
| 20260507012101 | 28 | 26 | 0.0 | 4.8 | 0.00 | 0.00 | 0.00 | 22 | 1006.8 |
| 20260507011600 | 28 | 54 | 0.0 | 3.2 | 0.00 | 0.00 | 0.00 | 22 | 1006.8 |
| 20260507011055 | 28 | 69 | 1.6 | 3.2 | 0.00 | 0.00 | 0.00 | 22 | 1006.9 |
| 20260507010550 | 28 | 60 | 0.0 | 3.2 | 0.00 | 0.00 | 0.00 | 22 | 1006.8 |
| 20260507010047 | 28 | 90 | 1.6 | 3.2 | 0.00 | 0.00 | 0.00 | 22 | 1006.9 |
| 20260507005544 | 28 | 75 | 1.6 | 3.2 | 0.00 | 0.00 | 0.00 | 22 | 1006.7 |
| 20260507005040 | 29 | 23 | 0.0 | 3.2 | 0.00 | 0.00 | 0.00 | 22 | 1006.8 |
| 20260507004537 | 28 | 69 | 1.6 | 3.2 | 0.00 | 0.00 | 0.00 | 22 | 1006.6 |
| 20260507004035 | 30 | 54 | 1.6 | 8.0 | 0.00 | 0.00 | 0.00 | 21 | 1006.7 |
| 20260507003530 | 30 | 339 | 3.2 | 3.2 | 0.00 | 0.00 | 0.00 | 22 | 1006.7 |
| 20260507003026 | 29 | 5 | 3.2 | 4.8 | 0.00 | 0.00 | 0.00 | 22 | 1006.7 |
| 20260507002522 | 28 | 114 | 3.2 | 4.8 | 0.00 | 0.00 | 0.00 | 23 | 1006.7 |
| 20260507002019 | 28 | 75 | 1.6 | 4.8 | 0.00 | 0.00 | 0.00 | 23 | 1006.7 |
| 20260507001515 | 29 | 38 | 3.2 | 4.8 | 0.00 | 0.00 | 0.00 | 22 | 1006.6 |
| 20260507001013 | 28 | 90 | 1.6 | 6.4 | 0.00 | 0.00 | 0.00 | 22 | 1006.8 |
| 20260507000508 | 28 | 35 | 0.0 | 4.8 | 0.00 | 0.00 | 0.00 | 23 | 1006.6 |
| 20260507000004 | 28 | 120 | 1.6 | 4.8 | 0.00 | 0.00 | 0.00 | 23 | 1006.8 |
| 20260506235502 | 28 | 56 | 3.2 | 6.4 | 0.00 | 0.00 | 0.00 | 22 | 1006.7 |
| 20260506234957 | 28 | 49 | 3.2 | 3.2 | 0.00 | 0.00 | 0.00 | 22 | 1006.9 |
| 20260506234455 | 29 | 41 | 3.2 | 4.8 | 0.00 | 0.00 | 0.00 | 22 | 1006.9 |
| 20260506233952 | 28 | 110 | 3.2 | 4.8 | 0.00 | 0.00 | 0.00 | 22 | 1006.9 |
| 20260506233449 | 28 | 7 | 3.2 | 8.0 | 0.00 | 0.00 | 0.00 | 23 | 1006.9 |
| 20260506232945 | 29 | 112 | 3.2 | 3.2 | 0.00 | 0.00 | 0.00 | 22 | 1007.1 |
| 20260506232442 | 28 | 41 | 3.2 | 4.8 | 0.00 | 0.00 | 0.00 | 23 | 1007.0 |
| 20260506231937 | 28 | 45 | 0.0 | 4.8 | 0.00 | 0.00 | 0.00 | 23 | 1007.1 |
| 20260506231436 | 28 | 99 | 1.6 | 4.8 | 0.00 | 0.00 | 0.00 | 23 | 1007.1 |
| 20260506230932 | 29 | 37 | 3.2 | 8.0 | 0.00 | 0.00 | 0.00 | 24 | 1007.1 |
| 20260506230428 | 28 | 23 | 4.8 | 4.8 | 0.00 | 0.00 | 0.00 | 25 | 1007.2 |
| 20260506225925 | 29 | 8 | 0.0 | 4.8 | 0.00 | 0.00 | 0.00 | 23 | 1007.2 |
| 20260506225423 | 28 | 41 | 0.0 | 4.8 | 0.00 | 0.00 | 0.00 | 23 | 1007.1 |
| 20260506224919 | 28 | 95 | 3.2 | 6.4 | 0.00 | 0.00 | 0.00 | 22 | 1007.2 |
| 20260506224417 | 28 | 74 | 0.0 | 4.8 | 0.00 | 0.00 | 0.00 | 23 | 1007.5 |
| 20260506223913 | 28 | 97 | 4.8 | 4.8 | 0.00 | 0.00 | 0.00 | 23 | 1007.3 |
| 20260506223408 | 28 | 82 | 1.6 | 3.2 | 0.00 | 0.00 | 0.00 | 23 | 1007.6 |
| 20260506222906 | 29 | 355 | 3.2 | 8.0 | 0.00 | 0.00 | 0.00 | 22 | 1007.7 |
| 20260506222402 | 29 | 14 | 4.8 | 4.8 | 0.00 | 0.00 | 0.00 | 21 | 1007.7 |
| 20260506221859 | 28 | 23 | 1.6 | 3.2 | 0.00 | 0.00 | 0.00 | 24 | 1007.8 |
| 20260506221356 | 28 | 0 | 4.8 | 6.4 | 0.00 | 0.00 | 0.00 | 24 | 1008.1 |
| 20260506220854 | 28 | 77 | 1.6 | 3.2 | 0.00 | 0.00 | 0.00 | 23 | 1007.9 |
| 20260506220349 | 28 | 70 | 4.8 | 8.0 | 0.00 | 0.00 | 0.00 | 25 | 1008.0 |
| 20260506215846 | 27 | 20 | 1.6 | 3.2 | 0.00 | 0.00 | 0.00 | 25 | 1008.0 |
| 20260506215342 | 27 | 123 | 4.8 | 4.8 | 0.00 | 0.00 | 0.00 | 24 | 1008.1 |
| 20260506214838 | 28 | 63 | 0.0 | 6.4 | 0.00 | 0.00 | 0.00 | 23 | 1008.2 |
| 20260506214335 | 28 | 20 | 1.6 | 4.8 | 0.00 | 0.00 | 0.00 | 24 | 1008.3 |
| 20260506213833 | 28 | 331 | 8.0 | 8.0 | 0.00 | 0.00 | 0.00 | 23 | 1008.4 |
| 20260506213330 | 27 | 95 | 3.2 | 4.8 | 0.00 | 0.00 | 0.00 | 24 | 1008.6 |
| 20260506212828 | 27 | 352 | 1.6 | 4.8 | 0.00 | 0.00 | 0.00 | 23 | 1008.4 |
| 20260506212323 | 27 | 63 | 1.6 | 3.2 | 0.00 | 0.00 | 0.00 | 24 | 1008.5 |
| 20260506211818 | 27 | 12 | 0.0 | 4.8 | 0.00 | 0.00 | 0.00 | 26 | 1008.6 |
| 20260506211315 | 27 | 14 | 4.8 | 4.8 | 0.00 | 0.00 | 0.00 | 29 | 1008.6 |
| 20260506210812 | 27 | 270 | 1.6 | 4.8 | 0.00 | 0.00 | 0.00 | 25 | 1008.8 |
| 20260506210309 | 27 | 19 | 4.8 | 6.4 | 0.00 | 0.00 | 0.00 | 24 | 1008.7 |
| 20260506205806 | 27 | 36 | 3.2 | 4.8 | 0.00 | 0.00 | 0.00 | 24 | 1009.0 |
| 20260506205305 | 26 | 12 | 1.6 | 3.2 | 0.00 | 0.00 | 0.00 | 26 | 1008.9 |
| 20260506204758 | 27 | 35 | 1.6 | 3.2 | 0.00 | 0.00 | 0.00 | 25 | 1009.1 |
| 20260506204256 | 26 | 29 | 3.2 | 4.8 | 0.00 | 0.00 | 0.00 | 25 | 1009.2 |
| 20260506203754 | 27 | 35 | 1.6 | 4.8 | 0.00 | 0.00 | 0.00 | 24 | 1009.1 |
| 20260506203251 | 27 | 300 | 4.8 | 8.0 | 0.00 | 0.00 | 0.00 | 24 | 1009.5 |
| 20260506202748 | 27 | 273 | 6.4 | 8.0 | 0.00 | 0.00 | 0.00 | 24 | 1009.3 |
| 20260506202244 | 27 | 24 | 0.0 | 8.0 | 0.00 | 0.00 | 0.00 | 25 | 1009.5 |
| 20260506201741 | 26 | 0 | 3.2 | 6.4 | 0.00 | 0.00 | 0.00 | 24 | 1009.3 |
| 20260506201238 | 27 | 35 | 1.6 | 6.4 | 0.00 | 0.00 | 0.00 | 26 | 1009.4 |
| 20260506200735 | 26 | 14 | 1.6 | 3.2 | 0.00 | 0.00 | 0.00 | 28 | 1009.4 |
| 20260506200232 | 26 | 15 | 3.2 | 4.8 | 0.00 | 0.00 | 0.00 | 24 | 1009.7 |
| 20260506195728 | 26 | 22 | 3.2 | 6.4 | 0.00 | 0.00 | 0.00 | 29 | 1009.8 |
| 20260506195225 | 26 | 11 | 3.2 | 4.8 | 0.00 | 0.00 | 0.00 | 31 | 1009.9 |
| 20260506194722 | 25 | 29 | 0.0 | 3.2 | 0.00 | 0.00 | 0.00 | 27 | 1009.7 |
| 20260506194218 | 26 | 97 | 1.6 | 8.0 | 0.00 | 0.00 | 0.00 | 26 | 1009.8 |
| 20260506193716 | 26 | 286 | 3.2 | 6.4 | 0.00 | 0.00 | 0.00 | 24 | 1010.2 |
| 20260506193213 | 26 | 32 | 3.2 | 3.2 | 0.00 | 0.00 | 0.00 | 29 | 1009.8 |
| 20260506192709 | 26 | 90 | 0.0 | 4.8 | 0.00 | 0.00 | 0.00 | 26 | 1009.9 |
| 20260506192206 | 25 | 49 | 3.2 | 4.8 | 0.00 | 0.00 | 0.00 | 26 | 1010.1 |
| 20260506191703 | 26 | 54 | 0.0 | 4.8 | 0.00 | 0.00 | 0.00 | 27 | 1009.9 |
| 20260506191159 | 25 | 0 | 1.6 | 8.0 | 0.00 | 0.00 | 0.00 | 26 | 1010.2 |
| 20260506190657 | 25 | 143 | 3.2 | 4.8 | 0.00 | 0.00 | 0.00 | 27 | 1009.9 |
| 20260506190153 | 25 | 334 | 6.4 | 8.0 | 0.00 | 0.00 | 0.00 | 26 | 1010.3 |
| 20260506185650 | 25 | 334 | 3.2 | 8.0 | 0.00 | 0.00 | 0.00 | 25 | 1010.4 |
| 20260506185146 | 26 | 8 | 3.2 | 4.8 | 0.00 | 0.00 | 0.00 | 29 | 1010.5 |
| 20260506184644 | 25 | 61 | 0.0 | 4.8 | 0.00 | 0.00 | 0.00 | 27 | 1010.3 |
| 20260506184141 | 25 | 352 | 0.0 | 4.8 | 0.00 | 0.00 | 0.00 | 28 | 1010.4 |
| 20260506183638 | 25 | 32 | 3.2 | 4.8 | 0.00 | 0.00 | 0.00 | 27 | 1010.6 |
| 20260506183133 | 25 | 26 | 0.0 | 4.8 | 0.00 | 0.00 | 0.00 | 29 | 1010.4 |
| 20260506182631 | 23 | 354 | 4.8 | 11.3 | 0.00 | 0.00 | 0.00 | 28 | 1010.5 |
| 20260506182128 | 24 | 18 | 4.8 | 8.0 | 0.00 | 0.00 | 0.00 | 27 | 1010.7 |
| 20260506181626 | 25 | 0 | 1.6 | 8.0 | 0.00 | 0.00 | 0.00 | 29 | 1010.7 |
| 20260506181123 | 25 | 354 | 4.8 | 9.7 | 0.00 | 0.00 | 0.00 | 27 | 1010.7 |
| 20260506180620 | 25 | 14 | 3.2 | 4.8 | 0.00 | 0.00 | 0.00 | 30 | 1010.7 |
| 20260506180116 | 25 | 26 | 1.6 | 3.2 | 0.00 | 0.00 | 0.00 | 30 | 1010.8 |
| 20260506175612 | 25 | 12 | 1.6 | 6.4 | 0.00 | 0.00 | 0.00 | 30 | 1011.0 |
| 20260506175108 | 25 | 21 | 3.2 | 6.4 | 0.00 | 0.00 | 0.00 | 31 | 1011.1 |
| 20260506174608 | 24 | 351 | 3.2 | 4.8 | 0.00 | 0.00 | 0.00 | 29 | 1011.0 |
| 20260506174103 | 24 | 60 | 1.6 | 3.2 | 0.00 | 0.00 | 0.00 | 30 | 1011.1 |
| 20260506173601 | 24 | 82 | 0.0 | 3.2 | 0.00 | 0.00 | 0.00 | 31 | 1011.1 |
| 20260506173058 | 24 | 81 | 0.0 | 6.4 | 0.00 | 0.00 | 0.00 | 30 | 1011.1 |
| 20260506172555 | 23 | 340 | 0.0 | 4.8 | 0.00 | 0.00 | 0.00 | 31 | 1011.1 |
| 20260506172051 | 23 | 5 | 3.2 | 9.7 | 0.00 | 0.00 | 0.00 | 32 | 1011.2 |
| 20260506171549 | 23 | 26 | 0.0 | 4.8 | 0.00 | 0.00 | 0.00 | 33 | 1011.1 |
| 20260506171047 | 23 | 32 | 3.2 | 4.8 | 0.00 | 0.00 | 0.00 | 32 | 1010.8 |
| 20260506170544 | 23 | 330 | 3.2 | 4.8 | 0.00 | 0.00 | 0.00 | 32 | 1011.0 |
| 20260506170041 | 23 | 37 | 3.2 | 4.8 | 0.00 | 0.00 | 0.00 | 34 | 1010.9 |
| 20260506165540 | 22 | 34 | 3.2 | 4.8 | 0.00 | 0.00 | 0.00 | 34 | 1011.1 |
| 20260506165036 | 22 | 95 | 3.2 | 8.0 | 0.00 | 0.00 | 0.00 | 35 | 1011.1 |
| 20260506164532 | 22 | 5 | 4.8 | 6.4 | 0.00 | 0.00 | 0.00 | 33 | 1010.9 |
| 20260506164030 | 21 | 34 | 3.2 | 3.2 | 0.00 | 0.00 | 0.00 | 35 | 1010.9 |
| 20260506163526 | 22 | 66 | 3.2 | 4.8 | 0.00 | 0.00 | 0.00 | 35 | 1010.8 |
| 20260506163022 | 21 | 0 | 3.2 | 4.8 | 0.00 | 0.00 | 0.00 | 35 | 1011.0 |
| 20260506162518 | 21 | 15 | 1.6 | 3.2 | 0.00 | 0.00 | 0.00 | 36 | 1010.8 |
| 20260506162015 | 20 | 29 | 0.0 | 3.2 | 0.00 | 0.00 | 0.00 | 37 | 1010.6 |
| 20260506161513 | 20 | 32 | 3.2 | 3.2 | 0.00 | 0.00 | 0.00 | 39 | 1010.7 |
| 20260506161009 | 20 | 35 | 1.6 | 3.2 | 0.00 | 0.00 | 0.00 | 38 | 1010.9 |
| 20260506160507 | 20 | 66 | 0.0 | 3.2 | 0.00 | 0.00 | 0.00 | 37 | 1010.8 |
| 20260506160004 | 20 | 41 | 0.0 | 3.2 | 0.00 | 0.00 | 0.00 | 39 | 1010.7 |
| 20260506155502 | 19 | 10 | 3.2 | 3.2 | 0.00 | 0.00 | 0.00 | 38 | 1010.9 |
| 20260506153634 | 18 | 63 | 0.0 | 3.2 | 0.00 | 0.00 | 0.00 | 41 | 1010.9 |
| 20260506153131 | 18 | 40 | 0.0 | 3.2 | 0.00 | 0.00 | 0.00 | 42 | 1010.9 |
| 20260506152628 | 18 | 29 | 1.6 | 3.2 | 0.00 | 0.00 | 0.00 | 43 | 1010.9 |
| 20260506152126 | 18 | 81 | 0.0 | 3.2 | 0.00 | 0.00 | 0.00 | 40 | 1010.8 |
| 20260506151624 | 17 | 29 | 0.0 | 1.6 | 0.00 | 0.00 | 0.00 | 39 | 1010.9 |
| 20260506151121 | 17 | 40 | 3.2 | 3.2 | 0.00 | 0.00 | 0.00 | 43 | 1011.1 |
| 20260506150618 | 17 | 11 | 3.2 | 3.2 | 0.00 | 0.00 | 0.00 | 43 | 1010.8 |
| 20260506150115 | 17 | 15 | 0.0 | 3.2 | 0.00 | 0.00 | 0.00 | 43 | 1010.8 |
| 20260506145612 | 17 | 47 | 4.8 | 6.4 | 0.00 | 0.00 | 0.00 | 40 | 1010.8 |
| 20260506145108 | 17 | 36 | 3.2 | 3.2 | 0.00 | 0.00 | 0.00 | 44 | 1011.1 |
| 20260506144605 | 17 | 337 | 0.0 | 3.2 | 0.00 | 0.00 | 0.00 | 40 | 1010.7 |
| 20260506144102 | 17 | 0 | 0.0 | 3.2 | 0.00 | 0.00 | 0.00 | 42 | 1010.9 |
| 20260506143600 | 17 | 7 | 0.0 | 4.8 | 0.00 | 0.00 | 0.00 | 43 | 1010.9 |